Location: Misciano
(43.5000°N, 11.9500°E)
Time: 05:55:57
(UTC+00:00)

Cosmos 2369 - Pass Details

Date: 13 August 2020
Orbit: 838 x 857 km, 71.0° (Epoch: 23 September)

Event Time Altitude Azimuth Distance (km) Brightness Sun altitude
Rises 18:50:34 0° 336° (NNW) 3,439 7.8 -6.2°
Reaches altitude 10° 18:53:03 10° 339° (NNW) 2,499 6.9 -6.6°
Maximum altitude 18:58:47 69° 63° (ENE) 916 3.8 -7.6°
Drops below altitude 10° 19:04:28 10° 147° (SSE) 2,479 5.6 -8.5°
Enters shadow 19:05:17 - 148° (SSE) 2,786 5.9 -8.6°
